Location: Central Falls
(41.8900°N, 71.3929°W)
Time: 12:07:17
(UTC+00:00)

A-11 Canister half - Pass Details

Date: 09 December 2023
Orbit: 1526 x 1682 km, 47.3° (Epoch: 20 February)

Event Time Altitude Azimuth Distance (km) Brightness Sun altitude
Rises 07:17:24 0° 289° (WNW) 4,876 - -51.7°
Reaches altitude 10° 07:22:16 10° 270° (W) 3,855 - -50.9°
Maximum altitude 07:27:22 16° 238° (WSW) 3,387 - -49.9°
Drops below altitude 10° 07:32:24 10° 205° (SSW) 3,778 - -49.0°
Sets 07:37:09 0° 185° (S) 4,728 - -48.2°
